TIME,DELAY(SENSOR),PRES,OXYGEN,RAWTEMP,T(OPTODE),TCPHASE,FLUOR,BETA(BETA700),BETA(BETA412),BETA(BETA440),CDOM,C(CSC),ED(ED411.90),ED(ED443.80),ED(ED489.40),ED(ED554.70),LU(LU412.20),LU(LU443.80),LU(LU489.40),LU(LU555.00),COMP,TILTX,TILTY,CHECK
1344982359,5804,828.4400024414062000,167.1259002685547000,421.3392944335937500,9.9512548446655270,38.7838211059570300,52,102,99,79,79,14069,2146955026,2147514029,2147288539,2147505746,2147090889,2146932242,2147705042,2147120274,2384,-2,8,44602
1344985955,5807,934.2299804687500000,193.6275024414062500,490.6003112792969000,7.8208179473876950,38.1355705261230500,53,102,99,79,81,14047,2146956617,2147518765,2147293732,2147516781,2147088576,2146920777,2147716068,2147118811,689,-1,8,5383
1344989555,5806,953.7800292968750000,204.2315063476562500,501.5494995117187500,7.4814147949218750,37.6675605773925800,53,104,99,79,80,14047,2146956891,2147513984,2147291712,2147521206,2147088374,2146925138,2147716900,2147115922,2753,-1,8,43584
1344993155,5803,967.7100219726562000,213.7129974365234400,512.9395141601562000,7.1274900436401370,37.3069992065429700,52,103,98,79,80,14043,2146959049,2147514212,2147294400,2147523968,2147091785,2146927104,2147721133,2147116736,3455,-1,8,42014
1344996755,5805,973.8300170898438000,215.6253051757812500,514.5715942382812000,7.0767030715942380,37.2261199951171900,52,104,100,78,80,14040,2146958217,2147513389,2147295542,2147524123,2147090797,2146928777,2147723044,2147115382,343,-1,8,41135
1345000355,5805,975.0200195312500000,216.8984985351562500,515.4697875976562000,7.0487451553344730,37.1692008972168000,52,103,99,78,81,14034,2146957878,2147519744,2147297316,2147523986,2147088484,2146926253,2147720237,2147114953,3540,-1,8,28978
1345003955,5804,982.1199951171875000,217.6519012451172000,517.5427246093750000,6.9842000007629395,37.1629104614257800,52,103,100,79,80,14038,2146955776,2147513307,2147296740,2147524123,2147089993,2146920045,2147724562,2147115392,2786,-1,8,22007
1345007555,5805,980.7800292968750000,219.2911987304687500,517.2747802734375000,6.9925417900085450,37.0659904479980500,52,102,99,78,81,14038,2146956141,2147515520,2147295213,2147524681,2147092233,2146918308,2147719689,2147117293,3483,-1,8,25304
1345011155,5802,985.1699829101562000,219.6567993164062500,517.6132202148438000,6.9820051193237305,37.0517692565918000,52,107,100,79,80,13933,2146958427,2147516196,2147299309,2147523858,2147091264,2146928484,2147721362,2147115584,3045,-1,8,58474
1345014755,5807,989.1799926757812000,218.1896057128906200,518.8167724609375000,6.9445128440856930,37.1557884216308600,52,118,100,79,80,13924,2146957787,2147516406,2147295241,2147523876,2147091757,2146925961,2147723456,2147116498,92,-1,8,18541
1345018355,5803,991.6099853515625000,218.3193969726562500,516.8151245117188000,7.0068597793579100,37.1131896972656250,52,102,99,79,81,13931,2146959360,2147512265,2147298560,2147523282,2147089270,2146918857,2147723227,2147116480,3531,-1,8,3402
1345021955,5801,992.6099853515625000,218.1925964355468800,516.4221191406250000,7.0190958976745605,37.1134300231933600,51,120,101,79,80,13928,2146955382,2147515721,2147294601,2147524278,2147091117,2146921984,2147720365,2147119058,2816,-1,8,12026
1345025555,5805,988.9699707031250000,218.0894012451172000,518.5993041992188000,6.9512882232666020,37.1573104858398440,53,103,100,79,80,13923,2146959158,2147512704,2147294518,2147522587,2147089270,2146927387,2147723456,2147117540,384,-1,8,31623
1345029155,5807,988.7899780273438000,219.0242004394531200,518.9332885742188000,6.9408831596374510,37.1103401184082000,52,104,101,80,80,13926,2146956699,2147520228,2147294473,2147523401,2147092342,2146921673,2147721499,2147120448,2698,-1,8,5339
1345032755,5804,992.1099853515625000,220.1808929443359400,519.0374145507812000,6.9376411437988280,37.0474205017089840,53,101,101,79,81,13924,2146957641,2147514724,2147294381,2147526793,2147092178,2146923913,2147719433,2147119113,3037,-1,8,57339
1345036355,5805,995.2999877929688000,219.7221069335937500,518.2850952148438000,6.9610772132873535,37.0600700378418000,52,101,100,79,80,13924,2146957906,2147517010,2147295707,2147523126,2147092260,2146924836,2147721984,2147116690,3088,-1,8,1731
1345039955,5804,996.3499755859375000,219.9217071533203000,518.5045166015625000,6.9542422294616700,37.0528488159179700,53,102,98,79,81,13926,2146957952,2147513956,2147295341,2147529124,2147091858,2146926610,2147722404,2147117458,3245,-2,8,59187
1345043555,5805,993.5700073242188000,219.7180023193359400,517.9246215820312000,6.9723072052001950,37.0533294677734400,52,100,99,78,80,13925,2146956562,2147514349,2147294198,2147524361,2147090925,2146921490,2147722916,2147117147,3475,-1,8,43166
1345047155,5804,991.7500000000000000,219.9739074707031200,519.4296875000000000,6.9254159927368160,37.0657386779785160,52,102,99,80,81,13923,2146958290,2147514898,2147296923,2147522614,2147090596,2146921883,2147719926,2147118747,3319,-1,8,62212
1345050755,5804,993.9199829101562000,220.3123016357422000,518.9368286132812000,6.9407749176025390,37.0384902954101560,52,100,98,79,82,13925,2146956361,2147517778,2147294537,2147520978,2147089042,2146923218,2147723492,2147120365,3376,-1,8,36400
1345054355,5804,989.7999877929688000,221.8193969726562500,520.5465087890625000,6.8906149864196780,36.9829788208007800,53,104,99,79,80,13923,2146956955,2147518774,2147297033,2147524571,2147092342,2146922870,2147724909,2147120960,3095,-1,8,53475
1345057955,5804,994.7700195312500000,221.1239929199218800,520.8261718750000000,6.8818988800048830,37.0269088745117200,52,102,100,79,81,13923,2146954486,2147514011,2147298377,2147525906,2147090422,2146920512,2147723757,2147115894,3088,-1,8,64401
1345061555,5806,998.3599853515625000,220.6721954345703000,519.3432006835938000,6.9281120300292970,37.0249595642089840,52,103,100,78,80,13913,2146954825,2147516150,2147298669,2147523986,2147091520,2146917184,2147725449,2147118107,330,-1,8,64599
1345065155,5805,1000.2600097656250000,219.8764038085937500,518.4815063476562000,6.9549579620361330,37.0547409057617200,52,102,99,80,81,13911,2146959606,2147517869,2147297755,2147524580,2147092489,2146920091,2147720603,2147119442,236,-1,8,7581
1345068755,5806,998.9899902343750000,219.5491027832031200,519.0855712890625000,6.9361391067504880,37.0834007263183600,52,102,101,80,80,13911,2146955382,2147516434,2147297380,2147526290,2147094390,2146924123,2147721590,2147115072,487,-1,8,16984
1345072355,5807,997.8200073242188000,219.7077941894531200,518.4824829101562000,6.9549269676208500,37.0642585754394500,52,103,100,79,81,13900,2146955492,2147518116,2147297216,2147524443,2147088676,2146926848,2147725577,2147116982,147,-1,8,14681
1345075955,5807,998.1799926757812000,220.1761016845703000,519.5311279296875000,6.9222559928894040,37.0567893981933600,52,105,98,80,80,13905,2146957430,2147515611,2147295963,2147522130,2147093101,2146921810,2147722624,2147118537,585,-2,8,12298
1345079555,5806,1002.0300292968750000,219.7127075195312500,518.8519287109375000,6.9434199333190920,37.0705718994140600,52,102,99,80,81,13904,2146955218,2147516617,2147297289,2147526427,2147088694,2146924233,2147722752,2147118793,3482,-1,8,978
1345083155,5808,1005.4699707031250000,218.3307952880859400,517.3195190429688000,6.9911508560180660,37.1209182739257800,52,102,98,78,80,13901,2146958125,2147513033,2147294857,2147524178,2147094939,2146918253,2147722148,2147119826,2699,-1,8,54371
1345086755,5808,1004.4199829101562000,217.6607971191406200,518.6657714843750000,6.9492177963256840,37.1828613281250000,53,102,99,80,80,13904,2146959670,2147518016,2147297234,2147523986,2147092534,2146922048,2147723126,2147118866,705,-1,8,13067
1345090355,5807,992.6500244140625000,219.5175933837890600,520.5217895507812000,6.8913860321044920,37.1107292175293000,52,102,99,79,80,13901,2146953654,2147515977,2147298285,2147520091,2147089691,2146926418,2147723739,2147117110,3078,-1,8,17480
1345093955,5807,993.5800170898438000,221.7902984619140600,522.1339111328125000,6.8411340713500980,37.0127792358398440,51,104,100,79,80,13900,2146958829,2147516790,2147294683,2147521417,2147091821,2146924086,2147720813,2147118729,166,-1,8,38996
1345097555,5805,998.0599975585938000,222.0955963134765600,520.8477172851562000,6.8812270164489750,36.9727897644043000,52,104,99,80,82,13903,2146958345,2147517284,2147294500,2147523949,2147089444,2146923913,2147719862,2147117220,751,-1,8,36239
1345101155,5805,1000.6300048828125000,219.9568023681640600,520.5883789062500000,6.8893098831176760,37.0871009826660160,52,100,100,79,82,13898,2146958637,2147516790,2147295067,2147520786,2147092553,2146921490,2147725915,2147118427,3439,-1,8,401
1345104755,5805,1005.0100097656250000,219.4073028564453000,519.4619140625000000,6.9244141578674320,37.0981483459472660,52,101,99,78,81,13900,2146958893,2147516178,2147296402,2147524443,2147090523,2146924388,2147722550,2147116443,3567,-1,8,26511
1345108355,5808,1000.4899902343750000,219.9488983154297000,519.6699829101562000,6.9179291725158690,37.0722694396972660,52,104,99,78,81,13901,2146957302,2147517467,2147299501,2147523785,2147088338,2146921435,2147718985,2147115200,161,-1,8,55271
1345111955,5805,1001.0900268554688000,220.6907043457031200,520.1436767578125000,6.9031701087951660,37.0383682250976560,52,103,99,80,80,13897,2146958482,2147514221,2147296585,2147523611,2147091456,2146925577,2147718491,2147119570,3319,-1,8,16149
1345115555,5807,1005.3900146484375000,220.5874023437500000,520.2863769531250000,6.8987221717834470,37.0468902587890600,53,103,99,78,80,13901,2146959936,2147517010,2147295826,2147520859,2147088045,2146924406,2147726427,2147119990,3523,-1,8,58824
1345119155,5805,1000.9099731445312000,220.4880065917968800,520.4284057617188000,6.8942952156066895,37.0548210144043000,52,100,99,78,81,13895,2146955712,2147517824,2147299218,2147519926,2147089609,2146927433,2147723529,2147119012,3563,-1,8,14290
1345122755,5808,1002.1799926757812000,221.3092041015625000,520.1923217773438000,6.9016537666320800,37.0045814514160160,53,100,99,78,80,13889,2146957549,2147514102,2147297252,2147520201,2147089892,2146921380,2147720338,2147117019,3595,-1,8,48971
1345124155,5806,1011.0200195312500000,220.3005981445312500,518.6204833984375000,6.9506278038024900,37.0331382751464840,52,101,103,79,81,14003,2146957750,2147514148,2147296009,2147523218,2147087460,2146926436,2147718400,2147119250,3112,-1,8,46051
